| time (UTC) | temp F | wind direction | speed MPH | gust MPH | rain 1hr in | rain 24hr in | rain mn in | humidity % | barometer mb |
| 20260903190315 | 73 | 40 | 2.0 | 0.0 | 0.00 | 0.00 | 0.00 | 57 | 1016.0 |
| 20260903184814 | 73 | 50 | 3.0 | 0.0 | 0.00 | 0.00 | 0.00 | 57 | 1016.0 |
| 20260903183316 | 73 | 50 | 3.0 | 0.0 | 0.00 | 0.00 | 0.00 | 57 | 1016.0 |
| 20260903181814 | 73 | 50 | 5.0 | 0.0 | 0.00 | 0.00 | 0.00 | 57 | 1016.0 |
| 20260903180314 | 73 | 50 | 5.0 | 0.0 | 0.00 | 0.00 | 0.00 | 57 | 1016.0 |
| 20260903174814 | 75 | 60 | 5.0 | 0.0 | 0.00 | 0.00 | 0.00 | 54 | 1016.0 |
| 20260903173315 | 75 | 60 | 5.0 | 0.0 | 0.00 | 0.00 | 0.00 | 54 | 1016.0 |
| 20260903171815 | 77 | 40 | 5.0 | 0.0 | 0.00 | 0.00 | 0.00 | 47 | 1015.0 |
| 20260903170315 | 77 | 40 | 5.0 | 0.0 | 0.00 | 0.00 | 0.00 | 47 | 1015.0 |
| 20260903164814 | 81 | 70 | 5.0 | 0.0 | 0.00 | 0.00 | 0.00 | 42 | 1015.0 |
| 20260903163314 | 81 | 70 | 5.0 | 0.0 | 0.00 | 0.00 | 0.00 | 42 | 1015.0 |
| 20260903161814 | 84 | 120 | 6.0 | 0.0 | 0.00 | 0.00 | 0.00 | 37 | 1015.0 |
| 20260903160315 | 84 | 120 | 6.0 | 0.0 | 0.00 | 0.00 | 0.00 | 37 | 1015.0 |
| 20260903154815 | 84 | 60 | 3.0 | 0.0 | 0.00 | 0.00 | 0.00 | 37 | 1015.0 |
| 20260903153315 | 84 | 60 | 3.0 | 0.0 | 0.00 | 0.00 | 0.00 | 37 | 1015.0 |
| 20260903151815 | 86 | 80 | 7.0 | 0.0 | 0.00 | 0.00 | 0.00 | 35 | 1015.0 |
| 20260903150315 | 86 | 80 | 7.0 | 0.0 | 0.00 | 0.00 | 0.00 | 35 | 1015.0 |
| 20260903144814 | 86 | 5.0 | 0.0 | 0.00 | 0.00 | 0.00 | 35 | 1015.0 | |
| 20260903143315 | 86 | 5.0 | 0.0 | 0.00 | 0.00 | 0.00 | 35 | 1015.0 | |
| 20260903141815 | 86 | 70 | 5.0 | 0.0 | 0.00 | 0.00 | 0.00 | 35 | 1016.0 |
| 20260903140314 | 86 | 70 | 5.0 | 0.0 | 0.00 | 0.00 | 0.00 | 35 | 1016.0 |
| 20260903134814 | 86 | 60 | 7.0 | 0.0 | 0.00 | 0.00 | 0.00 | 38 | 1016.0 |
| 20260903133314 | 86 | 60 | 7.0 | 0.0 | 0.00 | 0.00 | 0.00 | 38 | 1016.0 |
| 20260903131814 | 86 | 3.0 | 0.0 | 0.00 | 0.00 | 0.00 | 38 | 1016.0 | |
| 20260903130315 | 86 | 3.0 | 0.0 | 0.00 | 0.00 | 0.00 | 38 | 1016.0 | |
| 20260903124814 | 84 | 50 | 7.0 | 0.0 | 0.00 | 0.00 | 0.00 | 43 | 1016.0 |
| 20260903123325 | 84 | 50 | 7.0 | 0.0 | 0.00 | 0.00 | 0.00 | 43 | 1016.0 |
| 20260903121814 | 86 | 70 | 7.0 | 0.0 | 0.00 | 0.00 | 0.00 | 40 | 1016.0 |
| 20260903120315 | 86 | 70 | 7.0 | 0.0 | 0.00 | 0.00 | 0.00 | 40 | 1016.0 |
| 20260903114815 | 84 | 50 | 8.0 | 0.0 | 0.00 | 0.00 | 0.00 | 40 | 1017.0 |
| 20260903113314 | 84 | 50 | 8.0 | 0.0 | 0.00 | 0.00 | 0.00 | 40 | 1017.0 |
| 20260903111815 | 82 | 50 | 8.0 | 0.0 | 0.00 | 0.00 | 0.00 | 45 | 1017.0 |
| 20260903110314 | 82 | 50 | 8.0 | 0.0 | 0.00 | 0.00 | 0.00 | 45 | 1017.0 |
| 20260903104814 | 82 | 60 | 10.0 | 0.0 | 0.00 | 0.00 | 0.00 | 48 | 1017.0 |
| 20260903103314 | 82 | 60 | 10.0 | 0.0 | 0.00 | 0.00 | 0.00 | 48 | 1017.0 |
| 20260903101815 | 82 | 60 | 11.0 | 0.0 | 0.00 | 0.00 | 0.00 | 48 | 1017.0 |
| 20260903100315 | 82 | 60 | 11.0 | 0.0 | 0.00 | 0.00 | 0.00 | 48 | 1017.0 |
| 20260903094814 | 81 | 70 | 13.0 | 0.0 | 0.00 | 0.00 | 0.00 | 51 | 1018.0 |
| 20260903093314 | 81 | 70 | 13.0 | 0.0 | 0.00 | 0.00 | 0.00 | 51 | 1018.0 |
| 20260903091831 | 81 | 60 | 14.0 | 0.0 | 0.00 | 0.00 | 0.00 | 51 | 1018.0 |
| 20260903090330 | 81 | 60 | 14.0 | 0.0 | 0.00 | 0.00 | 0.00 | 51 | 1018.0 |
| 20260903084814 | 79 | 60 | 14.0 | 0.0 | 0.00 | 0.00 | 0.00 | 54 | 1018.0 |
| 20260903083314 | 79 | 60 | 14.0 | 0.0 | 0.00 | 0.00 | 0.00 | 54 | 1018.0 |
| 20260903081814 | 77 | 60 | 11.0 | 0.0 | 0.00 | 0.00 | 0.00 | 57 | 1018.0 |
| 20260903080314 | 77 | 60 | 11.0 | 0.0 | 0.00 | 0.00 | 0.00 | 57 | 1018.0 |
| 20260903074815 | 75 | 60 | 13.0 | 0.0 | 0.00 | 0.00 | 0.00 | 61 | 1018.0 |
| 20260903073314 | 75 | 60 | 13.0 | 0.0 | 0.00 | 0.00 | 0.00 | 61 | 1018.0 |
| 20260903071814 | 75 | 50 | 14.0 | 0.0 | 0.00 | 0.00 | 0.00 | 65 | 1018.0 |
| 20260903070314 | 75 | 50 | 14.0 | 0.0 | 0.00 | 0.00 | 0.00 | 65 | 1018.0 |
| 20260903064814 | 73 | 50 | 10.0 | 0.0 | 0.00 | 0.00 | 0.00 | 65 | 1018.0 |
| 20260903063314 | 73 | 50 | 10.0 | 0.0 | 0.00 | 0.00 | 0.00 | 65 | 1018.0 |
| 20260903061814 | 70 | 50 | 8.0 | 0.0 | 0.00 | 0.00 | 0.00 | 78 | 1017.0 |
| 20260903060319 | 70 | 50 | 8.0 | 0.0 | 0.00 | 0.00 | 0.00 | 78 | 1017.0 |
| 20260903054819 | 70 | 40 | 7.0 | 0.0 | 0.00 | 0.00 | 0.00 | 73 | 1017.0 |
| 20260903053314 | 70 | 40 | 7.0 | 0.0 | 0.00 | 0.00 | 0.00 | 73 | 1017.0 |
| 20260903051815 | 68 | 50 | 7.0 | 0.0 | 0.00 | 0.00 | 0.00 | 78 | 1017.0 |
| 20260903050316 | 68 | 50 | 7.0 | 0.0 | 0.00 | 0.00 | 0.00 | 78 | 1017.0 |
| 20260903044814 | 68 | 50 | 5.0 | 0.0 | 0.00 | 0.00 | 0.00 | 78 | 1017.0 |
| 20260903043314 | 68 | 50 | 5.0 | 0.0 | 0.00 | 0.00 | 0.00 | 78 | 1017.0 |
| 20260903041814 | 66 | 10 | 3.0 | 0.0 | 0.00 | 0.00 | 0.00 | 83 | 1017.0 |
| 20260903040314 | 66 | 10 | 3.0 | 0.0 | 0.00 | 0.00 | 0.00 | 83 | 1017.0 |
| 20260903034814 | 68 | 40 | 5.0 | 0.0 | 0.00 | 0.00 | 0.00 | 78 | 1017.0 |
| 20260903033314 | 68 | 40 | 5.0 | 0.0 | 0.00 | 0.00 | 0.00 | 78 | 1017.0 |
| 20260903031814 | 68 | 40 | 5.0 | 0.0 | 0.00 | 0.00 | 0.00 | 78 | 1017.0 |
| 20260903030422 | 68 | 360 | 6.0 | 0.0 | 0.00 | 0.00 | 0.00 | 78 | 1017.0 |
| 20260903024922 | 68 | 360 | 6.0 | 0.0 | 0.00 | 0.00 | 0.00 | 78 | 1017.0 |
| 20260903023402 | 68 | 360 | 6.0 | 0.0 | 0.00 | 0.00 | 0.00 | 78 | 1017.0 |
| 20260903021813 | 68 | 40 | 3.0 | 0.0 | 0.00 | 0.00 | 0.00 | 78 | 1017.0 |
| 20260903020429 | 68 | 40 | 3.0 | 0.0 | 0.00 | 0.00 | 0.00 | 78 | 1017.0 |
| 20260903014815 | 70 | 20 | 6.0 | 0.0 | 0.00 | 0.00 | 0.00 | 73 | 1017.0 |
| 20260903013313 | 70 | 20 | 6.0 | 0.0 | 0.00 | 0.00 | 0.00 | 73 | 1017.0 |
| 20260903011814 | 70 | 70 | 8.0 | 0.0 | 0.00 | 0.00 | 0.00 | 69 | 1017.0 |
| 20260903010314 | 70 | 70 | 8.0 | 0.0 | 0.00 | 0.00 | 0.00 | 69 | 1017.0 |
| 20260903004814 | 70 | 60 | 9.0 | 0.0 | 0.00 | 0.00 | 0.00 | 69 | 1017.0 |
| 20260903003314 | 70 | 60 | 9.0 | 0.0 | 0.00 | 0.00 | 0.00 | 69 | 1017.0 |
| 20260903001814 | 70 | 60 | 7.0 | 0.0 | 0.00 | 0.00 | 0.00 | 69 | 1017.0 |
| 20260903000314 | 70 | 60 | 7.0 | 0.0 | 0.00 | 0.00 | 0.00 | 69 | 1017.0 |
| 20260902234814 | 70 | 50 | 8.0 | 0.0 | 0.00 | 0.00 | 0.00 | 73 | 1017.0 |
| 20260902233314 | 70 | 50 | 8.0 | 0.0 | 0.00 | 0.00 | 0.00 | 73 | 1017.0 |
| 20260902231815 | 68 | 10 | 8.0 | 0.0 | 0.00 | 0.00 | 0.00 | 73 | 1018.0 |
| 20260902230313 | 68 | 10 | 8.0 | 0.0 | 0.00 | 0.00 | 0.00 | 73 | 1018.0 |
| 20260902224814 | 68 | 30 | 3.0 | 0.0 | 0.00 | 0.00 | 0.00 | 73 | 1017.0 |
| 20260902223314 | 68 | 30 | 3.0 | 0.0 | 0.00 | 0.00 | 0.00 | 73 | 1017.0 |
| 20260902221814 | 70 | 350 | 5.0 | 0.0 | 0.00 | 0.00 | 0.00 | 69 | 1017.0 |
| 20260902220314 | 70 | 350 | 5.0 | 0.0 | 0.00 | 0.00 | 0.00 | 69 | 1017.0 |
| 20260902214814 | 70 | 2.0 | 0.0 | 0.00 | 0.00 | 0.00 | 69 | 1017.0 | |
| 20260902213314 | 70 | 2.0 | 0.0 | 0.00 | 0.00 | 0.00 | 69 | 1017.0 | |
| 20260902211815 | 70 | 40 | 5.0 | 0.0 | 0.00 | 0.00 | 0.00 | 69 | 1017.0 |
| 20260902210314 | 70 | 40 | 5.0 | 0.0 | 0.00 | 0.00 | 0.00 | 69 | 1017.0 |
| 20260902204813 | 72 | 30 | 5.0 | 0.0 | 0.00 | 0.00 | 0.00 | 65 | 1017.0 |
| 20260902203314 | 72 | 30 | 5.0 | 0.0 | 0.00 | 0.00 | 0.00 | 65 | 1017.0 |
| 20260902201814 | 72 | 40 | 5.0 | 0.0 | 0.00 | 0.00 | 0.00 | 65 | 1017.0 |
| 20260902200329 | 72 | 40 | 5.0 | 0.0 | 0.00 | 0.00 | 0.00 | 65 | 1017.0 |
| 20260902194814 | 72 | 30 | 5.0 | 0.0 | 0.00 | 0.00 | 0.00 | 65 | 1017.0 |
| 20260902193314 | 72 | 30 | 5.0 | 0.0 | 0.00 | 0.00 | 0.00 | 65 | 1017.0 |
| 20260902191814 | 72 | 20 | 5.0 | 0.0 | 0.00 | 0.00 | 0.00 | 65 | 1017.0 |